Vorticity
7 2 -9 4 4 21 13 40 25 30 5 11 13 16 15 11 12 12 12 13 15 15 17 19 21 21 14 14 6 9 20 10 16 2 10 11 16 28 27 21 6 3 6 1
-9 10 8 -12 -3 10 11 8 9 -0 9 6 13 13 9 15 16 11 11 22 18 16 16 13 12 12 17 11 11 12 16 25 23 27 28 25 15 8 2 0 2 7 18 22
-5 19 18 -40 9 -3 22 16 15 5 11 21 14 11 9 7 7 15 20 17 14 17 19 21 21 21 22 21 21 21 20 17 13 7 2 -0 5 13 20 26 28 24 16 10
1 30 10 -2 16 3 -25 21 16 -4 6 16 16 13 12 10 7 5 5 9 14 16 15 14 13 13 13 11 9 7 4 3 4 6 13 21 26 21 14 8 6 5 6 8
29 13 -0 -2 3 7 6 8 12 12 6 3 14 14 11 13 12 14 10 6 3 2 2 3 5 7 9 12 14 16 18 18 20 20 21 13 6 4 5 7 10 10 8 5
26 16 10 4 18 18 2 -6 21 9 6 5 11 13 10 11 13 14 14 14 15 14 14 16 17 15 14 14 13 14 15 16 12 8 5 5 7 7 7 6 4 5 5 5
10 17 0 14 25 12 18 -2 12 18 11 18 8 21 16 11 13 12 11 12 12 12 11 10 9 9 11 13 14 10 6 5 5 5 5 5 5 6 6 6 6 7 7 8
10 17 0 15 37 22 18 11 11 14 12 32 22 10 7 6 7 8 8 8 10 12 13 12 10 6 5 4 3 4 5 5 5 5 6 7 7 8 9 8 9 9 10 11
9 1 5 3 3 7 7 8 16 14 10 14 17 11 5 5 3 6 5 10 14 11 11 4 4 4 5 8 10 11 11 12 12 12 11 10 10 9 10 10 9 8 7 6
18 9 -4 4 3 2 4 5 7 12 11 9 12 5 6 1 4 6 6 6 6 5 7 9 10 12 14 10 8 7 7 7 7 6 5 5 5 5 5 6 6 7 7 8
15 19 15 14 12 7 4 3 5 4 8 12 12 12 11 7 8 10 9 10 12 11 11 10 8 8 7 6 5 5 4 4 5 6 8 7 8 9 9 9 10 9 8 8
6 18 19 17 14 9 8 6 4 3 5 4 6 9 10 12 12 10 10 11 10 9 8 8 7 4 4 4 4 4 4 5 7 10 13 11 10 12 13 15 15 15 16 18
11 12 15 20 20 19 17 15 12 8 4 4 5 4 3 4 5 6 9 10 9 8 7 6 3 2 3 3 4 5 6 7 11 12 13 17 19 16 15 15 14 14 13 13
9 11 9 9 10 12 16 21 23 22 17 13 11 5 5 6 5 5 5 6 6 5 5 5 5 5 5 4 4 6 9 11 13 13 18 16 14 14 12 12 11 9 9 8
10 9 8 7 7 8 8 9 10 13 17 22 25 21 16 10 4 4 5 5 4 4 4 4 3 3 4 5 7 9 11 13 9 16 13 12 10 9 8 7 7 7 6 7
11 13 15 14 12 10 7 5 6 7 7 8 10 14 20 27 26 17 9 6 4 3 3 3 4 6 7 8 8 11 13 9 12 16 12 10 9 8 7 7 7 7 7 7
11 12 12 10 12 11 12 12 13 13 12 8 7 7 7 9 14 22 29 23 11 8 10 11 12 10 6 5 12 13 9 9 14 13 10 9 7 7 7 7 7 8 8 8
9 10 12 13 15 17 15 13 10 10 10 9 10 11 11 7 7 9 14 23 30 23 14 9 6 5 10 16 15 12 7 12 13 12 9 7 7 6 6 7 7 7 7 6
13 12 10 5 4 4 6 9 15 18 13 11 11 12 14 14 11 9 6 8 14 21 25 21 19 17 16 10 8 5 8 10 10 10 10 8 7 7 7 7 8 8 8 9
6 9 9 10 8 7 6 5 4 8 14 17 13 12 14 16 15 14 11 9 6 8 10 13 14 13 12 10 9 10 11 9 8 10 9 9 9 9 8 8 9 9 10 10
7 9 12 9 8 9 10 13 12 9 8 15 16 14 14 15 15 18 19 17 13 7 6 8 8 10 10 10 10 10 9 10 10 10 10 9 9 8 9 10 9 8 7 9
10 11 14 11 8 10 11 14 17 12 9 11 16 15 15 14 14 15 20 21 20 14 11 7 7 9 8 8 7 7 8 8 9 9 10 10 8 6 6 8 10 12 11 10
20 15 13 11 12 15 16 14 13 11 11 10 15 16 15 16 15 15 15 19 20 20 20 15 12 10 8 7 8 9 9 7 7 7 8 10 12 12 12 12 9 9 13 14
16 16 13 14 18 14 11 14 16 14 13 13 15 16 16 15 16 15 16 17 19 21 22 21 18 15 13 13 13 12 12 14 14 13 13 12 11 11 9 8 12 15 14 12
17 14 14 17 6 4 7 16 20 20 21 18 17 16 15 16 16 16 15 17 18 19 21 21 19 18 16 16 17 16 14 13 13 12 11 10 9 9 13 14 13 12 11 12
15 18 15 7 3 8 11 13 20 19 21 17 15 14 13 13 14 15 14 14 15 18 20 19 18 17 16 15 14 14 13 13 11 11 10 11 14 14 14 12 11 11 10 10
11 9 7 8 10 11 11 13 19 20 17 16 14 13 12 12 13 13 13 13 13 13 14 15 16 16 16 16 16 16 16 16 16 15 13 13 13 12 11 10 9 9 8 8
Height
2960 2960 2957 2952 2948 2942 2936 2938 2942 2948 2952 2954 2955 2958 2960 2964 2966 2971 2975 2977 2981 2985 2989 2994 2999 3004 3009 3015 3021 3026 3031 3035 3039 3044 3048 3053 3056 3061 3065 3070 3074 3079 3082 3086
2962 2962 2960 2958 2956 2953 2948 2948 2951 2956 2957 2959 2960 2961 2964 2965 2969 2972 2975 2977 2980 2984 2988 2992 2996 3000 3006 3011 3016 3021 3025 3029 3034 3038 3042 3047 3053 3057 3062 3066 3070 3074 3077 3079
2964 2962 2962 2964 2965 2964 2961 2958 2957 2958 2962 2962 2963 2965 2967 2969 2971 2974 2976 2978 2981 2984 2987 2991 2995 2999 3003 3008 3012 3017 3022 3027 3032 3037 3042 3046 3050 3053 3057 3061 3064 3067 3071 3075
2966 2964 2972 2975 2973 2970 2968 2965 2962 2964 2965 2966 2966 2967 2969 2971 2974 2976 2978 2981 2984 2987 2990 2993 2997 3001 3006 3010 3014 3018 3022 3026 3030 3034 3038 3042 3046 3050 3054 3057 3061 3065 3068 3072
2972 2971 2975 2974 2973 2971 2969 2970 2968 2968 2968 2969 2969 2970 2971 2973 2975 2978 2981 2984 2987 2990 2993 2997 3000 3004 3007 3011 3015 3018 3021 3025 3028 3032 3036 3041 3045 3048 3052 3056 3059 3063 3066 3069
2975 2977 2981 2977 2974 2974 2974 2974 2972 2971 2971 2972 2973 2974 2974 2975 2977 2980 2982 2985 2989 2991 2994 2997 3000 3003 3007 3011 3015 3018 3021 3025 3028 3032 3036 3040 3044 3047 3051 3054 3057 3061 3063 3065
2980 2980 2981 2978 2975 2974 2975 2981 2974 2973 2972 2973 2975 2977 2978 2978 2980 2982 2985 2988 2991 2993 2996 2999 3002 3005 3009 3012 3016 3018 3021 3025 3028 3032 3035 3038 3042 3045 3048 3051 3054 3057 3059 3061
2984 2983 2985 2981 2978 2978 2979 2977 2976 2976 2977 2976 2978 2979 2981 2982 2984 2986 2988 2991 2993 2996 2998 3001 3004 3007 3010 3013 3017 3019 3022 3025 3028 3031 3034 3036 3039 3042 3044 3047 3049 3052 3054 3055
2987 2986 2985 2983 2982 2981 2980 2980 2980 2979 2980 2980 2980 2982 2984 2984 2986 2989 2990 2993 2995 2997 2999 3001 3004 3007 3010 3013 3015 3018 3020 3023 3026 3028 3031 3033 3036 3038 3040 3043 3045 3047 3049 3050
2985 2984 2983 2984 2983 2983 2982 2982 2982 2981 2982 2982 2983 2984 2985 2985 2987 2991 2992 2993 2995 2997 2999 3002 3004 3007 3009 3011 3014 3017 3019 3022 3024 3026 3028 3030 3032 3033 3035 3038 3040 3041 3043 3044
2981 2980 2980 2980 2981 2981 2982 2982 2982 2982 2982 2982 2983 2984 2984 2985 2987 2990 2992 2993 2995 2996 2999 3001 3004 3006 3008 3011 3013 3015 3017 3019 3021 3022 3024 3025 3026 3028 3029 3031 3033 3034 3035 3036
2979 2977 2977 2977 2977 2977 2977 2979 2980 2980 2981 2981 2981 2982 2983 2984 2986 2987 2989 2991 2993 2996 2998 3000 3002 3005 3007 3009 3011 3012 3014 3015 3016 3017 3017 3018 3019 3020 3021 3023 3024 3026 3028 3030
2979 2976 2975 2973 2973 2973 2973 2973 2974 2975 2977 2978 2979 2980 2981 2982 2983 2984 2986 2988 2991 2992 2994 2997 2999 3001 3003 3004 3006 3007 3009 3009 3010 3010 3011 3011 3012 3014 3015 3017 3018 3020 3021 3022
2977 2976 2975 2973 2972 2971 2970 2970 2969 2969 2970 2972 2973 2975 2976 2978 2979 2980 2982 2983 2985 2987 2990 2992 2994 2996 2997 2999 3000 3001 3001 3002 3003 3003 3003 3004 3006 3007 3009 3011 3012 3014 3015 3016
2975 2974 2973 2972 2971 2970 2969 2968 2968 2967 2966 2966 2966 2968 2969 2971 2972 2974 2976 2977 2978 2980 2982 2985 2986 2988 2989 2990 2991 2992 2993 2994 2995 2995 2996 2998 3000 3002 3004 3005 3007 3008 3009 3010
2973 2972 2970 2969 2968 2967 2966 2966 2965 2964 2964 2963 2962 2961 2962 2962 2963 2965 2967 2969 2971 2974 2975 2976 2978 2980 2981 2982 2983 2985 2986 2987 2988 2989 2991 2993 2995 2997 2998 2999 3000 3001 3002 3003
2970 2969 2967 2966 2964 2963 2962 2962 2961 2960 2959 2958 2958 2957 2956 2956 2955 2955 2956 2958 2960 2963 2965 2967 2970 2971 2973 2975 2976 2978 2979 2980 2981 2983 2985 2987 2988 2989 2991 2991 2993 2994 2996 2996
2968 2966 2965 2963 2961 2959 2958 2957 2956 2954 2953 2952 2952 2951 2951 2951 2950 2949 2949 2949 2950 2953 2956 2959 2961 2962 2965 2967 2968 2970 2971 2972 2973 2976 2977 2979 2980 2981 2982 2984 2985 2986 2986 2986
2965 2963 2961 2959 2957 2956 2953 2951 2949 2947 2945 2944 2944 2943 2942 2942 2942 2942 2943 2944 2945 2946 2949 2949 2950 2952 2955 2958 2959 2961 2963 2964 2966 2968 2970 2971 2972 2973 2974 2975 2976 2976 2976 2976
2961 2959 2957 2954 2952 2949 2948 2945 2943 2940 2937 2936 2935 2934 2933 2932 2932 2933 2933 2936 2938 2939 2939 2940 2942 2944 2947 2949 2950 2953 2955 2956 2958 2959 2960 2962 2963 2964 2965 2965 2966 2966 2966 2966
2956 2953 2950 2947 2945 2943 2940 2938 2936 2933 2930 2928 2926 2925 2924 2923 2922 2923 2923 2925 2928 2928 2930 2931 2933 2936 2938 2940 2941 2944 2946 2948 2949 2950 2951 2952 2953 2954 2954 2955 2954 2955 2955 2954
2948 2945 2942 2939 2937 2935 2932 2929 2927 2925 2923 2920 2918 2917 2916 2914 2913 2913 2913 2915 2916 2915 2919 2922 2924 2926 2928 2929 2931 2934 2936 2938 2939 2940 2941 2942 2943 2943 2944 2944 2943 2942 2942 2941
2938 2935 2933 2931 2929 2926 2923 2921 2919 2917 2914 2912 2910 2908 2908 2906 2905 2905 2905 2904 2905 2905 2908 2911 2913 2916 2917 2918 2922 2924 2927 2928 2929 2930 2931 2931 2931 2931 2931 2931 2931 2930 2929 2929
2929 2927 2925 2923 2921 2919 2917 2913 2910 2908 2906 2904 2902 2901 2900 2899 2897 2898 2897 2897 2897 2897 2899 2901 2902 2905 2906 2909 2913 2914 2915 2917 2918 2918 2919 2918 2919 2919 2919 2919 2918 2918 2918 2916
2921 2919 2918 2916 2914 2912 2909 2906 2902 2899 2897 2895 2895 2894 2893 2893 2892 2891 2891 2890 2890 2890 2891 2892 2893 2895 2897 2900 2903 2904 2905 2906 2907 2907 2908 2908 2908 2908 2908 2907 2907 2906 2905 2905
2914 2913 2912 2910 2908 2905 2902 2899 2896 2893 2891 2889 2889 2888 2888 2887 2887 2886 2886 2885 2885 2885 2885 2885 2886 2887 2889 2891 2893 2895 2896 2897 2897 2897 2897 2897 2897 2896 2896 2896 2896 2894 2893 2893
2908 2907 2906 2904 2901 2898 2895 2893 2890 2887 2886 2885 2884 2883 2883 2882 2882 2882 2882 2881 2881 2881 2881 2881 2881 2882 2883 2884 2885 2886 2887 2888 2887 2887 2886 2887 2887 2887 2886 2885 2884 2883 2882 2880